[[{"header":{"parameterUnit":"m.s-1","parameterCategory":1,"la1":30.2991,"la2":30.254,"lo1":-89.0895,"lo2":-89.0444,"dy":0.0017,"dx":0.0017,"nx":28,"ny":28,"refTime":"2025-05-22T03:00:00:Z","depth":0,"parameterNumber":2,"parameterNumberName":"U-component_of_WINDS"},"data":[0,0,0,0,0,0,0,0,0,0,0,0,0,0,0,0,0,0,0,0,0,0,0,0,0,0,0,0,0,0,0,0,0,0,0,0,0,0,0,0,0,0,0,0,0,0,0,0,0,0,0,0,0,0,0,0,0,0,1.4167,1.4168,0,1.4207,1.4208,1.4208,1.4176,1.4174,1.4173,1.4172,1.4214,1.4216,1.4219,0,0,0,0,0,0,0,0,0,0,0,0,0,1.4062,1.4064,1.4167,1.4168,1.4168,1.4207,1.4208,1.4208,1.4176,1.4174,1.4173,1.4171,1.4213,1.4216,1.4219,0,0,0,0,0,0,0,0,0,0,0,0,0,1.4106,1.4065,1.4167,1.4157,1.4156,1.4207,1.4208,1.4208,1.4176,1.4174,1.4172,1.417,1.4212,1.4216,1.4219,1.4283,0,0,1.423,1.4232,0,0,0,0,0,0,0,0,1.4103,1.411,1.4158,1.4157,1.4157,1.4184,1.4186,1.4233,1.4177,1.4169,1.4172,1.4169,1.4206,1.421,1.4222,1.4285,1.4287,1.4231,1.4233,1.4234,1.4235,0,0,0,0,0,0,0,1.41,1.4108,1.4183,1.4158,1.4158,1.415,1.4154,1.4195,1.4198,1.4169,1.4167,1.4172,1.4205,1.4218,1.4223,1.4287,1.423,1.4234,1.4236,1.4237,1.4402,1.4404,0,0,0,0,0,0,1.4098,1.4105,1.4182,1.4184,1.4124,1.4153,1.4158,1.4178,1.4198,1.4199,1.4174,1.417,1.4213,1.4218,1.4224,1.4298,1.4234,1.4238,1.424,1.44,1.4403,1.4405,0,0,0,0,0,0,1.4096,1.4105,1.418,1.4144,1.4153,1.4157,1.418,1.4179,1.4193,1.4201,1.4202,1.4187,1.4212,1.4219,1.4268,1.4299,1.4239,1.4243,1.4398,1.4401,1.4404,1.4448,0,0,0,0,0,0,1.4093,1.4105,1.4129,1.4145,1.4155,1.4223,1.4182,1.4182,1.4199,1.4195,1.4213,1.4215,1.4211,1.4263,1.4271,1.4303,1.4245,1.4395,1.4399,1.4403,1.4444,1.4452,1.446,0,0,0,0,0,1.409,1.4141,1.4131,1.414,1.4186,1.4225,1.4231,1.4225,1.4202,1.4226,1.4231,1.4214,1.4295,1.4268,1.4278,1.4311,1.4393,1.4398,1.4403,1.444,1.4451,1.446,0,0,0,0,0,0,1.4129,1.4143,1.4132,1.4189,1.4206,1.422,1.425,1.4237,1.4262,1.4257,1.4249,1.4253,1.4305,1.4313,1.4283,1.4372,1.434,1.4347,1.4365,1.4375,1.4383,1.4379,1.4248,0,0,0,0,0,1.4145,1.4176,1.4186,1.4236,1.4245,1.4246,1.4263,1.4257,1.4275,1.4282,1.4291,1.4309,1.4338,1.4357,1.4385,1.4445,1.4448,1.4473,1.4481,1.4487,1.4493,1.4524,1.4535,1.4422,1.4422,1.4421,0,0,1.4177,1.4188,1.4208,1.4244,1.4256,1.4288,1.4252,1.4288,1.4312,1.4287,1.4333,1.4341,1.436,1.4415,1.4439,1.4423,1.4525,1.4494,1.4499,1.4501,1.453,1.4541,1.455,1.4425,1.4424,1.4424,0,0,1.4251,1.4264,1.4305,1.4318,1.4337,1.4338,1.4348,1.4363,1.4366,1.4413,1.4395,1.4423,1.4473,1.4487,1.4501,1.4579,1.4564,1.4589,1.463,1.4661,1.4669,1.4677,1.4704,1.4713,1.4595,1.4595,1.4595,0,1.4289,1.4336,1.4329,1.4365,1.4381,1.436,1.4401,1.4415,1.4442,1.4453,1.4435,1.4497,1.4508,1.4565,1.4584,1.4596,1.4607,1.4586,1.4669,1.4676,1.4684,1.4709,1.4719,1.4598,1.4597,1.4597,1.4597,0,1.438,1.4413,1.4445,1.4471,1.449,1.4529,1.4527,1.4548,1.454,1.4542,1.4589,1.4602,1.4631,1.4644,1.4637,1.4699,1.4688,1.467,1.4636,1.4697,1.4721,1.473,1.4602,1.4601,1.46,1.4599,0,0,1.4481,1.4501,1.4513,1.4523,1.4542,1.4567,1.4605,1.4633,1.465,1.4669,1.47,1.4743,1.4725,1.4741,1.4735,1.4762,1.4821,1.474,1.474,1.4753,1.4888,1.4901,1.4913,1.4811,1.4813,1.4815,1.4886,0,1.4555,1.462,1.4614,1.4675,1.4705,1.4685,1.4717,1.4732,1.4735,1.4761,1.4764,1.4794,1.4769,1.4778,1.4804,1.4808,1.4848,1.4803,1.4839,1.4841,1.4833,1.4925,1.4939,1.5006,1.4895,1.4897,1.4898,0,1.465,1.4671,1.4736,1.4748,1.476,1.479,1.4814,1.4839,1.4855,1.4855,1.4872,1.4861,1.4899,1.4866,1.4916,1.4886,1.4901,1.4905,1.4908,1.491,1.4872,1.4928,1.5027,1.5037,1.4913,1.4912,1.4911,0,1.4715,1.476,1.4803,1.4813,1.483,1.4851,1.4859,1.4873,1.4889,1.491,1.4921,1.4946,1.496,1.498,1.4976,1.4953,1.5028,1.4995,1.5028,1.5028,1.5044,1.5043,1.5146,1.5056,1.5056,1.5056,1.5055,0,1.4797,1.4837,1.4832,1.4859,1.4903,1.4895,1.4939,1.4944,1.4957,1.4984,1.4969,1.4995,1.4989,1.5015,1.5013,1.5054,1.5061,1.5062,1.506,1.5062,1.5062,1.5071,1.5065,1.5058,1.5058,1.5057,1.5057,0,1.4876,1.4875,1.4921,1.4933,1.4936,1.4968,1.4977,1.5002,1.5004,1.5038,1.5046,1.5048,1.5078,1.5076,1.511,1.5108,1.5159,1.5153,1.5153,1.5151,1.5184,1.5181,1.5295,1.5309,1.5212,1.5213,1.5214,0,1.4928,1.4958,1.4972,1.4989,1.4998,1.5025,1.5041,1.5035,1.5053,1.5072,1.5095,1.5123,1.5144,1.5192,1.5197,1.5222,1.5216,1.5254,1.5219,1.522,1.5214,1.5212,1.5214,1.5261,1.5262,1.5263,1.5263,0,1.502,1.5018,1.5041,1.5065,1.5084,1.5102,1.5119,1.5133,1.5129,1.5149,1.5178,1.5195,1.5229,1.5256,1.528,1.5288,1.5275,1.5274,1.5283,1.5284,1.5283,1.5282,1.517,1.5271,1.5271,1.527,1.527,1.5269,1.5086,1.5111,1.5124,1.5151,1.5162,1.5178,1.5201,1.5205,1.5229,1.5255,1.525,1.5283,1.5297,1.5327,1.5338,1.5363,1.5349,1.5363,1.5366,1.5369,1.5371,1.528,1.5368,1.5367,1.5367,1.5367,1.5367,0,1.5176,1.5183,1.5207,1.523,1.5251,1.5236,1.5253,1.5271,1.53,1.5314,1.5335,1.5368,1.5394,1.5401,1.5426,1.5445,1.5439,1.5451,1.5449,1.5451,1.5383,1.5372,1.5455,1.5455,1.5455,1.5455,1.5455,1.5455,1.5224,1.5265,1.5264,1.531,1.5317,1.5348,1.5359,1.5372,1.5384,1.5421,1.5442,1.5446,1.5457,1.5482,1.5505,1.5506,1.5516,1.553,1.5529,1.5465,1.5456,1.5448,1.5437,1.5533,1.5533,1.5594,1.5595,1.5595]},{"header":{"parameterUnit":"m.s-1","parameterCategory":1,"la1":30.2991,"la2":30.254,"lo1":-89.0895,"lo2":-89.0444,"dy":0.0017,"dx":0.0017,"nx":28,"ny":28,"refTime":"2025-05-22T03:00:00:Z","depth":0,"parameterNumber":3,"parameterNumberName":"V-component_of_WINDS"},"data":[0,0,0,0,0,0,0,0,0,0,0,0,0,0,0,0,0,0,0,0,0,0,0,0,0,0,0,0,0,0,0,0,0,0,0,0,0,0,0,0,0,0,0,0,0,0,0,0,0,0,0,0,0,0,0,0,0,0,0.2561,0.2561,0,0.2566,0.2566,0.2566,0.2529,0.2528,0.2527,0.2526,0.2532,0.2533,0.2534,0,0,0,0,0,0,0,0,0,0,0,0,0,0.252,0.2521,0.2561,0.2561,0.2561,0.2566,0.2566,0.2566,0.2529,0.2528,0.2527,0.2526,0.2532,0.2533,0.2534,0,0,0,0,0,0,0,0,0,0,0,0,0,0.2533,0.2522,0.2561,0.2544,0.2542,0.2566,0.2566,0.2566,0.253,0.2528,0.2526,0.2525,0.2531,0.2533,0.2535,0.2576,0,0,0.254,0.254,0,0,0,0,0,0,0,0,0.2532,0.2535,0.2546,0.2545,0.2543,0.2545,0.2554,0.257,0.253,0.2534,0.2526,0.2524,0.2538,0.2539,0.2543,0.2576,0.2577,0.254,0.2541,0.2542,0.2542,0,0,0,0,0,0,0,0.2532,0.2534,0.2563,0.2546,0.2544,0.2535,0.2535,0.2557,0.2545,0.2534,0.2531,0.2532,0.2537,0.2542,0.2543,0.2577,0.254,0.2541,0.2542,0.2543,0.2643,0.2645,0,0,0,0,0,0,0.2533,0.2534,0.2563,0.2563,0.2534,0.2537,0.2537,0.2546,0.2544,0.2543,0.2533,0.253,0.254,0.2541,0.2543,0.2591,0.2542,0.2543,0.2544,0.2642,0.2644,0.2646,0,0,0,0,0,0,0.2532,0.2536,0.2563,0.2548,0.255,0.254,0.255,0.2547,0.2552,0.2544,0.2542,0.2541,0.2538,0.2541,0.2568,0.2591,0.2544,0.2545,0.264,0.2642,0.2645,0.2688,0,0,0,0,0,0,0.2531,0.2536,0.2552,0.2548,0.2551,0.2588,0.2551,0.2548,0.2555,0.2551,0.255,0.2549,0.2537,0.2566,0.257,0.2592,0.2547,0.2638,0.2641,0.2644,0.2685,0.2692,0.2698,0,0,0,0,0,0.253,0.2564,0.2553,0.2556,0.2571,0.2589,0.2591,0.2577,0.2557,0.2573,0.2567,0.2549,0.2588,0.2569,0.2573,0.2597,0.2636,0.264,0.2644,0.2682,0.2691,0.2698,0,0,0,0,0,0,0.2571,0.2563,0.2551,0.2585,0.2588,0.2583,0.2602,0.2587,0.2596,0.2592,0.2574,0.2574,0.2604,0.2603,0.2582,0.2636,0.2609,0.2613,0.2636,0.2644,0.2651,0.2651,0.2548,0,0,0,0,0,0.2584,0.2599,0.2592,0.2623,0.2625,0.2613,0.2621,0.2609,0.2612,0.2613,0.261,0.2613,0.2626,0.2635,0.2647,0.2684,0.2683,0.2702,0.2709,0.2715,0.2719,0.2738,0.2747,0.2658,0.2658,0.2658,0,0,0.2611,0.2609,0.262,0.2631,0.2632,0.2648,0.2615,0.2633,0.2645,0.2616,0.2641,0.2639,0.2642,0.2674,0.2688,0.2674,0.2743,0.2719,0.2724,0.2725,0.2743,0.2751,0.2759,0.266,0.266,0.2659,0,0,0.2669,0.2669,0.2694,0.2696,0.2697,0.2689,0.2695,0.2692,0.269,0.2714,0.2693,0.2707,0.2729,0.2732,0.2736,0.2793,0.2777,0.2798,0.2833,0.2852,0.2859,0.2865,0.2885,0.2892,0.2802,0.2802,0.2802,0,0.2703,0.2726,0.2709,0.2729,0.2735,0.2708,0.2734,0.2736,0.2742,0.2746,0.273,0.2757,0.2757,0.2789,0.2803,0.2808,0.2814,0.2798,0.2859,0.2865,0.287,0.2889,0.2897,0.2805,0.2804,0.2804,0.2804,0,0.2767,0.2784,0.2804,0.2809,0.2817,0.284,0.2826,0.2836,0.2824,0.2817,0.2843,0.2841,0.2852,0.2858,0.2847,0.2889,0.288,0.2862,0.2834,0.2882,0.2899,0.2906,0.2808,0.2807,0.2807,0.2806,0,0,0.2852,0.2847,0.2855,0.2856,0.2856,0.2868,0.2889,0.2899,0.2907,0.2912,0.2929,0.2948,0.2931,0.2936,0.2924,0.2941,0.2986,0.292,0.292,0.2932,0.3032,0.3046,0.3054,0.2974,0.2976,0.2977,0.3031,0,0.2908,0.2944,0.2929,0.2966,0.2981,0.2955,0.2973,0.2975,0.2969,0.2981,0.2975,0.2989,0.2965,0.2968,0.2983,0.2977,0.3006,0.2973,0.299,0.2991,0.2991,0.3064,0.3078,0.313,0.3038,0.3039,0.304,0,0.2979,0.2985,0.3023,0.3019,0.3025,0.3042,0.3049,0.306,0.3061,0.3056,0.3061,0.3045,0.3066,0.3037,0.3065,0.3043,0.3049,0.3047,0.3049,0.305,0.3019,0.3067,0.3146,0.3154,0.3051,0.305,0.3049,0,0.3036,0.3055,0.308,0.3082,0.3078,0.309,0.3089,0.3088,0.3095,0.3101,0.3105,0.3114,0.3119,0.3126,0.3113,0.3094,0.3142,0.3113,0.3139,0.3139,0.315,0.315,0.3232,0.3154,0.3154,0.3154,0.3154,0,0.3101,0.3125,0.3105,0.3121,0.3147,0.313,0.3156,0.3153,0.3152,0.3166,0.3145,0.3159,0.3141,0.3153,0.3143,0.3167,0.317,0.3166,0.3163,0.3168,0.3169,0.3172,0.3168,0.3156,0.3156,0.3155,0.3155,0,0.317,0.3158,0.3183,0.3177,0.3176,0.3195,0.319,0.3204,0.3196,0.3214,0.3218,0.3206,0.3219,0.3207,0.322,0.3213,0.3245,0.3237,0.3245,0.3242,0.3269,0.3266,0.3356,0.3367,0.3282,0.3283,0.3284,0,0.3212,0.323,0.3225,0.3232,0.3232,0.3245,0.3251,0.3235,0.3242,0.3244,0.3258,0.3269,0.3277,0.3299,0.3292,0.3301,0.3293,0.3324,0.3294,0.3298,0.3293,0.3292,0.3294,0.333,0.3331,0.3332,0.3332,0,0.3287,0.328,0.3289,0.3297,0.3304,0.3309,0.3313,0.332,0.3303,0.3312,0.3325,0.3331,0.3344,0.3355,0.3362,0.3361,0.3344,0.3341,0.3348,0.3353,0.3357,0.3355,0.3261,0.334,0.3339,0.3338,0.3338,0.3338,0.3344,0.3358,0.3357,0.3368,0.3368,0.3372,0.3384,0.3378,0.3388,0.3397,0.3386,0.3402,0.3402,0.3409,0.341,0.3422,0.3409,0.3418,0.3421,0.3423,0.3427,0.3355,0.3423,0.3423,0.3423,0.3422,0.3422,0,0.3418,0.3415,0.3426,0.3431,0.3439,0.3422,0.3424,0.3433,0.3447,0.3448,0.3456,0.347,0.3481,0.3474,0.3483,0.3494,0.3486,0.3497,0.3496,0.3496,0.3438,0.3432,0.3503,0.3503,0.3503,0.3503,0.3503,0.3503,0.3457,0.3481,0.3473,0.3497,0.3494,0.3509,0.3512,0.3515,0.3515,0.3532,0.3541,0.3536,0.3534,0.3542,0.3551,0.3549,0.3553,0.3566,0.3561,0.3508,0.35,0.3492,0.3486,0.3568,0.3568,0.3618,0.3619,0.3619]}]]